星链-5111 (STARLINK-5111 )

导读 | 星芒AI

STARLINK-5111 是 SpaceX Starlink 项目中的一颗低轨通信卫星,属于第51批发射的星链卫星群。该卫星旨在为全球用户提供高速互联网服务,尤其关注网络覆盖不足的地区。它运行在约550公里高的近地轨道,采用先进的推进系统和激光通信技术,以提高连接稳定性和数据传输效率。作为星链计划的一部分,STARLINK-5111 有助于构建一个由数千颗卫星组成的全球宽带网络。

基本信息
目录编号:
56146
目录名称:
STARLINK-5111
国际标识:
2023-046BG
轨道中心:
EARTH
卫星名称:
星链-5111
卫星全名:
星链-5111 (STARLINK-5111 )
卫星状态:
在轨 (已飞行951 天)
发射日期:
2023-03-29 UTC
国别 :
美国 (US)
星等 :
--
轨道信息
数据来源 国际轨道数据
星历时间: 2025-11-04T19:57:22+0800
11小时前
查看轨道信息
半长轴: 6937.226km
偏心率: 0.0001336
轨道倾角: 43.003°
近地点辐角 265.989°
升交点赤经 105.899°
平近点角 94.080°
近地点: 558.164km
远地点: 560.018km
周期: 95.838分钟
每日圈数: 15.025331
详细信息
固有亮度:
5
最大亮度:
2.5
卫星平台:
Starlink v1.5
覆盖范围:
全球
运营商:
太空探索技术公司
运营商所在国:
美国
制造商(研发单位):
太空探索技术公司
制造商所在国:
美国
使用方式:
暂无
卫星简介
星链(Starlink)计划是由太空探索技术公司(SpaceX)提出的一个巨型低轨卫星互联网星座项目,计划在2019年至2024年间在太空搭建由约1.2万颗卫星组成的“星链”网络,其中1584颗将部署在地球上空550千米处的近地轨道,并从2020年开始工作。该卫星仍在工作。
2D轨道图
3D轨道图
轨道高度分析图
轨道倾角分析图
轨道综合分析图
查看轨道综合分析图